Preview of NWS' New Version of Forecast
This preview is not operational and should not be used for support decisions.

Regional Weather Roundup (RWR)

Issued by Gray - Portland, ME (GYX)

                            
502 
ASUS41 KGYX 250305
RWRGYX
WEATHER ROUNDUP FOR MAINE AND NEW HAMPSHIRE
NATIONAL WEATHER SERVICE GRAY ME
1100 PM EDT THU MAY 24 2018

MEZ002-005-006-010-012-015-018-020-021-024-026-027-029-250400-
MAINE
  
CITY           SKY/WX    TMP DP  RH WIND       PRES   REMARKS
PORTLAND       FAIR      53  49  86 SW6       30.01F                  
SANFORD        FAIR      53  49  86 SW5       30.02F                  
BAR HARBOR     CLOUDY    49  45  86 SW9       30.02F                  
WISCASSET      FAIR      52  48  86 VRB3      30.02F                  
ROCKLAND       FAIR      50  46  86 SW6       30.02F                  
FRYEBURG       FAIR      50  44  80 CALM      29.99F                  
LEWISTONAUBURN FAIR      48  46  93 CALM      30.00F                  
AUGUSTA        FAIR      49  46  90 VRB3      30.00F                  
WATERVILLE     FAIR      49  45  86 S6        29.97F                  
BANGOR         LGT RAIN  51  45  79 S8        29.98F                  
GREENVILLE       N/A     57  34  41 CALM      29.91F                  
MILLINOCKET    CLOUDY    53  44  71 CALM      29.95F                  
HOULTON        NOT AVBL                                               
PRESQUE ISLE   LGT RAIN  50  40  68 S8        29.89F                  
FRENCHVILLE    LGT RAIN  50  37  61 S8        29.84F                  
CARIBOU        LGT RAIN  51  38  60 SW7       29.87F                  
$$

NHZ002-005-008-009-011-012-014-250400-
NEW HAMPSHIRE
  
CITY           SKY/WX    TMP DP  RH WIND       PRES   REMARKS
PORTSMOUTH     PTCLDY    56  49  76 SW7       30.01F                  
ROCHESTER      FAIR      53  50  89 S3        30.01F                  
NASHUA         FAIR      61  53  75 CALM      30.04F                  
MANCHESTER     FAIR      63  50  62 S8        30.02F                  
CONCORD        FAIR      59  49  69 S6        30.01F                  
LACONIA        FAIR      53  45  74 CALM      30.01F                  
PLYMOUTH       FAIR      48  45  89 CALM      30.01F                  
BERLIN         FAIR      46  40  79 S3        29.99F                  
WHITEFIELD     FAIR      44  41  89 CALM      30.00F                  
JAFFREY        FAIR      54  49  83 S7        30.06S                  
KEENE          FAIR      52  45  77 CALM      30.04F                  
LEBANON        FAIR      52  42  69 CALM      30.00F                  
MT WASHINGTON  PTCLDY    41  25  52 W49         N/A                   
$$

VTZ005-007-008-250400-
VERMONT
  
CITY           SKY/WX    TMP DP  RH WIND       PRES   REMARKS
ST JOHNSBURY     N/A     51  44  77 MISG      29.98F                  
MONTPELIER     FAIR      49  41  74 S5        30.04F                  
BURLINGTON     FAIR      60  43  53 CALM      29.96F                  
$$

MAZ007-012-024-CTZ003-RIZ002-NYZ038-NYZ072-250400-
SOUTHERN NEW ENGLAND AND NY
  
CITY           SKY/WX    TMP DP  RH WIND       PRES   REMARKS
BOSTON         FAIR      56  48  74 SW12      30.07S                  
WORCESTER      FAIR      54  48  80 SW10      30.07F                  
NANTUCKET      FAIR      51  51 100 S8        30.13F                  
PROVIDENCE     MOCLDY    52  50  93 S8        30.12F                  
HARTFORD       FAIR      59  53  80 S9        30.08S                  
ALBANY         FAIR      65  45  48 S5        30.04F                  
NEW YORK CITY  FAIR      74  42  31 S12       30.08S                  
$$

ANZ081-ANZ082-ANZ150-NHZ014-MEZ023>029-250400-
COASTAL MARINE OBSERVATIONS
  
STATION/POSITION TIME  TEMP    WIND        PRES    WAVE
                       AIR SEA DIR/SP/G            HT/PER
                 (UTC) (F)     (DEG/KT/KT) (MB)    (FT/S)
MOUNT DESERT ROC 0300   48     200/ 18/ 19 1016.8F
MATINICUS ROCK   0200   49     210/ 17/ 19 1017.2F
ISLE OF SHOALS   0200   57     200/ 21/ 23 1016.7F
JEFFREYS LEDGE   0236      54                N/A     4/ 5
$$

.............KEY..............
   WCI - WIND CHILL
   TC  - TEMPERATURE IN CELSIUS
   VSB - VISIBILITY IN MILES
   HX  - HEAT INDEX
   FAIR- INDICATES FEW OR NO CLOUDS BELOW 12,000 FT, WITH NO 
         SIGNIFICANT WEATHER AND/OR OBSTRUCTIONS TO VISIBILITY.